SNJ67 RJFM-ROAH

Flight info

Callsign SNJ67
Flight time N/A
Altitude 30000
Route JACKY1 JACKY B597 ONC Y525 IHEYA IHEYAS
Aircraft B738/M-SDE2E3FGHIRWXY/LB1

Departure

Time N/A
Airport Miyazaki Airport (RJFM)

Arrival

Time 2026-04-21 00:42
Airport Naha International Airport (ROAH)
Time Latitude Longitude Altitude Speed Heading
2026-04-21 00:32 26.37099 127.91089 10541 ft 309 kts 205°
2026-04-21 00:33 26.35810 127.90419 10283 ft 309 kts 206°
2026-04-21 00:33 26.33858 127.89398 9907 ft 309 kts 206°
2026-04-21 00:33 26.31957 127.88406 9912 ft 295 kts 206°
2026-04-21 00:33 26.30109 127.87448 9642 ft 292 kts 205°
2026-04-21 00:34 26.28284 127.86508 9410 ft 288 kts 205°
2026-04-21 00:34 26.26479 127.85581 9057 ft 283 kts 205°
2026-04-21 00:34 26.24679 127.84659 8515 ft 285 kts 205°
2026-04-21 00:34 26.22878 127.83738 8044 ft 284 kts 205°
2026-04-21 00:35 26.21084 127.82821 7604 ft 282 kts 205°
2026-04-21 00:35 26.19311 127.81914 7172 ft 279 kts 206°
2026-04-21 00:35 26.17569 127.81021 6708 ft 279 kts 205°
2026-04-21 00:35 26.15801 127.80123 6235 ft 279 kts 205°
2026-04-21 00:36 26.14049 127.79231 5877 ft 274 kts 205°
2026-04-21 00:36 26.12323 127.78354 5514 ft 272 kts 205°
2026-04-21 00:36 26.10597 127.77476 5154 ft 274 kts 205°
2026-04-21 00:36 26.08848 127.76585 4815 ft 278 kts 205°
2026-04-21 00:37 26.07091 127.75673 4441 ft 279 kts 210°
2026-04-21 00:37 26.05663 127.74257 4078 ft 275 kts 241°
2026-04-21 00:37 26.05018 127.72349 3999 ft 255 kts 263°
2026-04-21 00:37 26.04867 127.70458 3982 ft 237 kts 270°
2026-04-21 00:38 26.04819 127.68711 3939 ft 220 kts 271°
2026-04-21 00:38 26.04772 127.67074 3789 ft 205 kts 271°
2026-04-21 00:38 26.04923 127.65528 3397 ft 199 kts 297°
2026-04-21 00:38 26.05774 127.64387 3033 ft 190 kts 328°
2026-04-21 00:39 26.07018 127.63968 2606 ft 189 kts 353°
2026-04-21 00:39 26.08328 127.63793 2141 ft 190 kts 355°
2026-04-21 00:39 26.09625 127.63728 1707 ft 183 kts 359°
2026-04-21 00:39 26.10852 127.63684 1427 ft 170 kts 358°
2026-04-21 00:40 26.11967 127.63630 1211 ft 153 kts 359°
2026-04-21 00:40 26.12999 127.63585 1016 ft 147 kts 359°
2026-04-21 00:40 26.14010 127.63526 822 ft 147 kts 359°
2026-04-21 00:40 26.15043 127.63489 626 ft 148 kts 360°
2026-04-21 00:41 26.16058 127.63445 438 ft 147 kts 358°
2026-04-21 00:41 26.17082 127.63391 232 ft 147 kts 359°
2026-04-21 00:41 26.18105 127.63347 31 ft 146 kts 357°
2026-04-21 00:41 26.19045 127.63300 14 ft 122 kts 358°
2026-04-21 00:42 26.19626 127.63281 17 ft 24 kts 18°
2026-04-21 00:42 26.19774 127.63355 17 ft 24 kts 24°
2026-04-21 00:42 26.19917 127.63438 16 ft 23 kts 18°
2026-04-21 00:42 26.20072 127.63437 16 ft 22 kts 357°
2026-04-21 00:43 26.20224 127.63439 16 ft 21 kts
2026-04-21 00:43 26.20303 127.63534 16 ft 20 kts 87°
2026-04-21 00:43 26.20309 127.63684 16 ft 19 kts 87°
2026-04-21 00:43 26.20315 127.63829 16 ft 18 kts 87°
2026-04-21 00:44 26.20321 127.63969 17 ft 18 kts 87°
2026-04-21 00:44 26.20326 127.64105 16 ft 17 kts 87°
2026-04-21 00:44 26.20332 127.64235 16 ft 17 kts 89°
2026-04-21 00:45 26.20344 127.64480 17 ft 15 kts 86°
2026-04-21 00:45 26.20343 127.64607 17 ft 17 kts 90°
2026-04-21 00:45 26.20420 127.64688 16 ft 16 kts 38°
2026-04-21 00:45 26.20517 127.64747 16 ft 16 kts 11°
2026-04-21 00:46 26.20621 127.64745 16 ft 15 kts 359°
2026-04-21 00:46 26.20654 127.64745 16 ft 1 kts 14°
2026-04-21 00:46 26.20655 127.64753 16 ft 1 kts 89°
2026-04-21 00:46 26.20649 127.64787 17 ft 8 kts 111°
2026-04-21 00:47 26.20632 127.64865 19 ft 13 kts 92°
2026-04-21 00:47 26.20645 127.64957 20 ft 10 kts 34°
2026-04-21 00:47 26.20688 127.64981 20 ft 5 kts 27°
2026-04-21 00:47 26.20705 127.64991 20 ft 1 kts 27°
2026-04-21 00:48 26.20709 127.64993 20 ft 0 kts 27°
2026-04-21 01:23 26.20700 127.64988 20 ft 4 kts 28°
2026-04-21 01:23 26.20676 127.64974 22 ft 4 kts 24°
2026-04-21 01:24 26.20655 127.64964 20 ft 4 kts 18°
2026-04-21 01:24 26.20630 127.64962 20 ft 4 kts 338°
2026-04-21 01:24 26.20611 127.64972 20 ft 0 kts 336°
2026-04-21 01:27 26.20620 127.64967 21 ft 4 kts 336°
2026-04-21 01:27 26.20637 127.64938 22 ft 5 kts 270°
2026-04-21 01:27 26.20635 127.64897 20 ft 5 kts 264°
2026-04-21 01:28 26.20629 127.64851 19 ft 8 kts 262°
2026-04-21 01:28 26.20607 127.64775 19 ft 13 kts 226°
2026-04-21 01:28 26.20522 127.64748 17 ft 13 kts 177°
2026-04-21 01:28 26.20417 127.64755 19 ft 19 kts 176°
2026-04-21 01:29 26.20273 127.64766 18 ft 21 kts 175°
2026-04-21 01:29 26.20129 127.64779 17 ft 21 kts 174°
2026-04-21 01:29 26.20023 127.64773 18 ft 13 kts 178°
2026-04-21 01:29 26.19934 127.64778 17 ft 13 kts 179°
2026-04-21 01:30 26.19847 127.64781 16 ft 12 kts 178°
2026-04-21 01:30 26.19747 127.64785 16 ft 17 kts 177°
2026-04-21 01:30 26.19624 127.64793 16 ft 17 kts 176°
2026-04-21 01:30 26.19505 127.64797 18 ft 17 kts 176°
2026-04-21 01:31 26.19380 127.64802 16 ft 20 kts 177°
2026-04-21 01:31 26.19222 127.64810 18 ft 23 kts 178°
2026-04-21 01:31 26.19072 127.64816 18 ft 20 kts 177°
2026-04-21 01:31 26.18942 127.64823 16 ft 19 kts 177°
2026-04-21 01:32 26.18813 127.64830 17 ft 18 kts 177°
2026-04-21 01:32 26.18688 127.64839 16 ft 18 kts 174°
2026-04-21 01:32 26.18568 127.64841 16 ft 17 kts 178°
2026-04-21 01:32 26.18451 127.64846 16 ft 16 kts 177°
2026-04-21 01:33 26.18339 127.64852 17 ft 16 kts 179°
2026-04-21 01:33 26.18250 127.64813 16 ft 13 kts 249°
2026-04-21 01:33 26.18242 127.64745 15 ft 0 kts 268°
2026-04-21 01:34 26.18241 127.64739 17 ft 3 kts 267°
2026-04-21 01:34 26.18239 127.64702 14 ft 6 kts 266°
2026-04-21 01:34 26.18247 127.64651 14 ft 7 kts 315°
2026-04-21 01:35 26.18279 127.64645 15 ft 0 kts 357°
2026-04-21 01:36 26.18281 127.64645 15 ft 2 kts 357°
2026-04-21 01:36 26.18393 127.64639 16 ft 43 kts 358°
2026-04-21 01:37 26.18916 127.64620 17 ft 105 kts 356°
2026-04-21 01:37 26.19808 127.64578 16 ft 153 kts 357°
2026-04-21 01:37 26.20902 127.64527 543 ft 152 kts 358°
2026-04-21 01:37 26.22003 127.64483 910 ft 170 kts 358°
2026-04-21 01:38 26.23179 127.64430 1535 ft 169 kts 356°
2026-04-21 01:38 26.24372 127.64350 2093 ft 176 kts 353°
2026-04-21 01:38 26.25630 127.64106 2457 ft 195 kts 345°
2026-04-21 01:38 26.26912 127.63404 2634 ft 216 kts 330°
2026-04-21 01:39 26.28263 127.62530 2856 ft 233 kts 331°
2026-04-21 01:39 26.29736 127.61592 3109 ft 252 kts 331°
2026-04-21 01:39 26.31281 127.60615 3736 ft 257 kts 332°
2026-04-21 01:39 26.32840 127.59629 4494 ft 259 kts 332°
2026-04-21 01:40 26.34420 127.58636 5202 ft 262 kts 332°
2026-04-21 01:40 26.36020 127.57633 5869 ft 265 kts 332°
2026-04-21 01:40 26.37644 127.56619 6525 ft 269 kts 332°
2026-04-21 01:40 26.39284 127.55588 7217 ft 273 kts 330°
2026-04-21 01:41 26.40685 127.54191 7862 ft 280 kts 304°
2026-04-21 01:41 26.41363 127.52124 8579 ft 286 kts 277°
2026-04-21 01:41 26.41129 127.49937 9225 ft 294 kts 250°
2026-04-21 01:41 26.40041 127.47998 9952 ft 298 kts 231°
2026-04-21 01:42 26.38662 127.46255 10570 ft 306 kts 229°
2026-04-21 01:42 26.37192 127.44422 10751 ft 328 kts 229°
2026-04-21 01:42 26.35637 127.42459 10908 ft 348 kts 229°
2026-04-21 01:42 26.33996 127.40389 11059 ft 366 kts 227°
2026-04-21 01:43 26.32178 127.38312 11217 ft 381 kts 225°
2026-04-21 01:43 26.30255 127.36232 11571 ft 389 kts 224°
2026-04-21 01:43 26.28301 127.34142 12180 ft 388 kts 224°
2026-04-21 01:43 26.26355 127.32051 12777 ft 389 kts 224°
2026-04-21 01:44 26.24405 127.29941 13327 ft 391 kts 225°
2026-04-21 01:44 26.22454 127.27818 13872 ft 393 kts 225°
2026-04-21 01:44 26.20493 127.25677 14433 ft 395 kts 225°
2026-04-21 01:44 26.18527 127.23530 14988 ft 397 kts 225°
2026-04-21 01:45 26.16553 127.21374 15532 ft 399 kts 225°
2026-04-21 01:45 26.14569 127.19209 16063 ft 400 kts 225°
2026-04-21 01:45 26.12591 127.17018 16577 ft 402 kts 228°
2026-04-21 01:45 26.10934 127.14518 17067 ft 403 kts 238°
2026-04-21 01:46 26.09463 127.11859 17566 ft 404 kts 239°
2026-04-21 01:46 26.08012 127.09178 18033 ft 406 kts 239°
2026-04-21 01:46 26.06546 127.06489 18511 ft 407 kts 239°
2026-04-21 01:46 26.05060 127.03799 18940 ft 409 kts 239°
2026-04-21 01:47 26.03553 127.01100 19334 ft 412 kts 238°
2026-04-21 01:47 26.02092 126.98504 19722 ft 414 kts 238°
2026-04-21 01:47 26.00556 126.95791 20122 ft 415 kts 238°
2026-04-21 01:47 25.99014 126.93075 20515 ft 417 kts 238°
2026-04-21 01:48 25.97453 126.90328 20767 ft 422 kts 238°
2026-04-21 01:48 25.95879 126.87558 21067 ft 425 kts 238°
2026-04-21 01:48 25.94296 126.84773 21457 ft 425 kts 238°
2026-04-21 01:48 25.92716 126.81994 21818 ft 426 kts 238°
2026-04-21 01:49 25.91131 126.79206 22163 ft 427 kts 238°
2026-04-21 01:49 25.89537 126.76405 22465 ft 429 kts 238°
2026-04-21 01:49 25.87956 126.73630 22747 ft 431 kts 238°
2026-04-21 01:49 25.86362 126.70800 23035 ft 433 kts 239°
2026-04-21 01:50 25.84839 126.67909 23310 ft 434 kts 241°
2026-04-21 01:50 25.83352 126.64979 23590 ft 435 kts 241°
2026-04-21 01:50 25.81872 126.62036 23851 ft 437 kts 242°
2026-04-21 01:50 25.80385 126.59081 24106 ft 438 kts 241°
2026-04-21 01:51 25.78885 126.56123 24359 ft 440 kts 241°
2026-04-21 01:51 25.77378 126.53168 24606 ft 441 kts 241°
2026-04-21 01:51 25.75860 126.50206 24833 ft 442 kts 241°
2026-04-21 01:51 25.74338 126.47244 25069 ft 443 kts 241°
2026-04-21 01:52 25.72829 126.44313 25286 ft 444 kts 241°
2026-04-21 01:52 25.69750 126.38341 25682 ft 447 kts 241°
2026-04-21 01:52 25.68203 126.35339 25857 ft 449 kts 241°
2026-04-21 01:53 25.66658 126.32346 26026 ft 445 kts 241°
2026-04-21 01:53 25.65117 126.29365 26071 ft 446 kts 241°
2026-04-21 01:53 25.63576 126.26382 26076 ft 447 kts 241°
2026-04-21 01:53 25.62025 126.23383 26079 ft 449 kts 241°
2026-04-21 01:54 25.60472 126.20382 26075 ft 449 kts 241°
2026-04-21 01:54 25.58917 126.17381 26075 ft 450 kts 241°
2026-04-21 01:54 25.57360 126.14376 26073 ft 450 kts 241°
2026-04-21 01:54 25.55803 126.11371 26075 ft 450 kts 241°
2026-04-21 01:55 25.54244 126.08364 26073 ft 450 kts 241°
2026-04-21 01:55 25.52682 126.05353 25449 ft 456 kts 241°
2026-04-21 01:55 25.51091 126.02290 24345 ft 457 kts 241°
2026-04-21 01:55 25.49564 125.99353 23727 ft 449 kts 241°
2026-04-21 01:56 25.48016 125.96378 22953 ft 443 kts 240°
2026-04-21 01:56 25.46489 125.93441 22212 ft 437 kts 240°
2026-04-21 01:56 25.44983 125.90548 21505 ft 431 kts 240°
2026-04-21 01:56 25.43492 125.87687 20776 ft 426 kts 240°
2026-04-21 01:57 25.42009 125.84845 19766 ft 428 kts 240°
2026-04-21 01:57 25.40527 125.82005 18989 ft 424 kts 240°
2026-04-21 01:57 25.39062 125.79198 18282 ft 419 kts 240°
2026-04-21 01:57 25.37611 125.76417 17557 ft 415 kts 240°
2026-04-21 01:58 25.36176 125.73672 16871 ft 409 kts 240°
2026-04-21 01:58 25.34604 125.71085 16139 ft 405 kts 227°
2026-04-21 01:58 25.32499 125.69026 15449 ft 402 kts 220°
2026-04-21 01:58 25.30381 125.67021 14745 ft 399 kts 221°
2026-04-21 01:59 25.28311 125.65007 14084 ft 395 kts 222°
2026-04-21 01:59 25.26269 125.62993 13422 ft 391 kts 222°
2026-04-21 01:59 25.24249 125.60995 12759 ft 388 kts 222°
2026-04-21 01:59 25.22268 125.59034 12135 ft 385 kts 221°
2026-04-21 02:00 25.20275 125.57067 11501 ft 382 kts 221°
2026-04-21 02:00 25.18473 125.55286 11279 ft 372 kts 222°
2026-04-21 02:00 25.16582 125.53408 11071 ft 359 kts 222°
2026-04-21 02:00 25.14752 125.51604 10907 ft 347 kts 222°
2026-04-21 02:01 25.12981 125.49862 10762 ft 335 kts 222°
2026-04-21 02:01 25.11266 125.48175 10609 ft 325 kts 222°
2026-04-21 02:01 25.09602 125.46539 10466 ft 315 kts 222°
2026-04-21 02:01 25.07989 125.44953 10334 ft 306 kts 222°
2026-04-21 02:02 25.06421 125.43412 10202 ft 297 kts 222°
2026-04-21 02:02 25.04897 125.41913 10080 ft 289 kts 222°
2026-04-21 02:02 25.03414 125.40456 9917 ft 283 kts 223°
2026-04-21 02:02 25.01946 125.39013 9613 ft 282 kts 223°
2026-04-21 02:03 25.00483 125.37575 9353 ft 280 kts 223°
2026-04-21 02:03 24.99038 125.36154 9057 ft 279 kts 223°
2026-04-21 02:03 24.97607 125.34749 8757 ft 279 kts 223°
2026-04-21 02:03 24.96162 125.33330 8460 ft 278 kts 223°
2026-04-21 02:04 24.94719 125.31916 8176 ft 277 kts 223°
2026-04-21 02:04 24.93286 125.30510 7873 ft 276 kts 223°
2026-04-21 02:04 24.91849 125.29101 7561 ft 276 kts 223°
2026-04-21 02:04 24.90758 125.28030 7339 ft 276 kts 223°
2026-04-21 02:05 24.89324 125.26623 7065 ft 275 kts 223°
2026-04-21 02:05 24.87889 125.25218 6732 ft 276 kts 223°
2026-04-21 02:05 24.86457 125.23816 6427 ft 275 kts 223°
2026-04-21 02:05 24.85031 125.22420 6148 ft 274 kts 223°
2026-04-21 02:06 24.83608 125.21028 5886 ft 273 kts 223°
2026-04-21 02:06 24.82185 125.19637 5584 ft 275 kts 223°
2026-04-21 02:06 24.80773 125.18253 5308 ft 276 kts 223°
2026-04-21 02:06 24.79343 125.16853 5056 ft 273 kts 223°
2026-04-21 02:07 24.77918 125.15492 4755 ft 273 kts 219°
2026-04-21 02:07 24.76220 125.14527 4281 ft 280 kts 191°
2026-04-21 02:07 24.74289 125.14609 3838 ft 279 kts 161°
2026-04-21 02:07 24.72658 125.15676 3382 ft 272 kts 131°
2026-04-21 02:08 24.71710 125.17414 2946 ft 263 kts 104°
2026-04-21 02:08 24.71473 125.19373 2522 ft 256 kts 88°
2026-04-21 02:08 24.71523 125.21317 2097 ft 253 kts 85°
2026-04-21 02:08 24.71789 125.23147 1897 ft 234 kts 64°
2026-04-21 02:09 24.72648 125.24571 1456 ft 223 kts 45°
2026-04-21 02:09 24.73819 125.25580 1159 ft 203 kts 43°
2026-04-21 02:09 24.74861 125.26529 830 ft 184 kts 49°
2026-04-21 02:09 24.75787 125.27400 590 ft 167 kts 42°
2026-04-21 02:10 24.76645 125.28124 418 ft 147 kts 42°
2026-04-21 02:10 24.77394 125.28854 277 ft 149 kts 48°
2026-04-21 02:10 24.77938 125.29340 760 ft 157 kts 36°
2026-04-21 02:10 24.79308 125.30340 1802 ft 194 kts 34°
2026-04-21 02:11 24.80490 125.31221 2282 ft 211 kts 37°
2026-04-21 02:11 24.81275 125.31878 2491 ft 221 kts 38°
2026-04-21 02:11 24.82526 125.33022 2382 ft 240 kts 39°
2026-04-21 02:11 24.83810 125.34152 2446 ft 234 kts 39°
2026-04-21 02:12 24.85047 125.35333 2990 ft 237 kts 48°
2026-04-21 02:12 24.85815 125.36924 3714 ft 240 kts 73°
2026-04-21 02:12 24.85875 125.38752 3990 ft 244 kts 99°
2026-04-21 02:12 24.85181 125.40483 3990 ft 253 kts 127°
2026-04-21 02:13 24.83796 125.41671 4000 ft 255 kts 157°
2026-04-21 02:13 24.82056 125.41934 4003 ft 255 kts 189°
2026-04-21 02:13 24.80401 125.41282 4008 ft 254 kts 210°
2026-04-21 02:13 24.78923 125.40222 3961 ft 254 kts 216°
2026-04-21 02:14 24.77502 125.39093 3745 ft 252 kts 217°
2026-04-21 02:14 24.76094 125.37952 3521 ft 252 kts 217°
2026-04-21 02:14 24.74677 125.36821 3419 ft 257 kts 216°
2026-04-21 02:14 24.73224 125.35676 3422 ft 257 kts 216°
2026-04-21 02:15 24.71790 125.34552 3389 ft 245 kts 216°
2026-04-21 02:15 24.70407 125.33483 3082 ft 242 kts 216°
2026-04-21 02:15 24.69063 125.32383 2701 ft 241 kts 225°
2026-04-21 02:15 24.68340 125.30843 2663 ft 224 kts 268°
2026-04-21 02:16 24.68548 125.29188 2561 ft 217 kts 292°
2026-04-21 02:16 24.69232 125.27745 2298 ft 210 kts 308°
2026-04-21 02:16 24.70045 125.26437 2031 ft 205 kts 308°
2026-04-21 02:16 24.70938 125.25286 1709 ft 192 kts 328°
2026-04-21 02:17 24.72135 125.25009 1476 ft 167 kts 14°
2026-04-21 02:17 24.73235 125.25261 1214 ft 154 kts 19°
2026-04-21 02:17 24.74054 125.25869 1069 ft 138 kts 51°
2026-04-21 02:17 24.74805 125.26543 852 ft 144 kts 32°
2026-04-21 02:18 24.75611 125.27153 691 ft 137 kts 42°
2026-04-21 02:18 24.76340 125.27835 479 ft 137 kts 39°
2026-04-21 02:18 24.77097 125.28486 311 ft 139 kts 39°
2026-04-21 02:18 24.77873 125.29155 153 ft 143 kts 39°
2026-04-21 02:19 24.78578 125.29771 143 ft 113 kts 38°
2026-04-21 02:19 24.78931 125.30071 143 ft 13 kts 36°
2026-04-21 02:19 24.78962 125.30136 144 ft 7 kts 147°
2026-04-21 02:19 24.78934 125.30114 143 ft 6 kts 240°
2026-04-21 02:20 24.78910 125.30070 143 ft 7 kts 238°
2026-04-21 02:20 24.78870 125.30013 142 ft 12 kts 223°
2026-04-21 02:20 24.78807 125.29955 143 ft 12 kts 216°
2026-04-21 02:20 24.78736 125.29896 141 ft 15 kts 216°
2026-04-21 02:21 24.78627 125.29808 141 ft 22 kts 219°
2026-04-21 02:21 24.78495 125.29695 144 ft 25 kts 217°
2026-04-21 02:21 24.78351 125.29572 146 ft 25 kts 218°
2026-04-21 02:21 24.78247 125.29558 148 ft 16 kts 137°
2026-04-21 02:22 24.78180 125.29655 146 ft 16 kts 127°
2026-04-21 02:22 24.78090 125.29680 145 ft 15 kts 223°
2026-04-21 02:22 24.78024 125.29625 143 ft 8 kts 199°
2026-04-21 02:22 24.78000 125.29650 144 ft 5 kts 126°
2026-04-21 02:23 24.77984 125.29672 144 ft 2 kts 129°
2026-04-21 02:23 24.77981 125.29677 145 ft 0 kts 129°